Madras, OR

6:58 PM PDT on August 30, 2015 (GMT -0700)
Downtown Madras | | Change Station
CLOSE
Current Station
Personal Weather Station
Location: Madras, OR
Elevation: 2262 ft
Nearby Weather Stations

Elev 2262 ft 44.63 °N, 121.13 °W | Updated 6 seconds ago

Mostly Cloudy
Mostly Cloudy
63.1 °F
Feels Like 63.1 °F
N
1.0
Wind Variable Wind from WSW
Gusts 9.0 mph

Today
High -- | Low -- °F
--% Chance of Precip.
Yesterday
High -- | Low -- °F
Precip. -- in
6:24 AM 7:45 PM
Full, 97% visible
Pressure 30.04 in
Visibility 10.0 miles
Clouds Mostly Cloudy 8000 ft
Dew Point 45 °F
Humidity 52%
Rainfall 0.00 in
Snow Depth Not available.
UV 1 out of 12
Pollen .50 out of 12
Air Quality Not available.
Flu Activity Not available.
METAR KRDM 310056Z 31010KT 10SM BKN080 16/07 A3007 RMK AO2 SLP170 T01560067
Pressure 30.04 in
Visibility 10.0 miles
Clouds Mostly Cloudy 8000 ft
Dew Point 45 °F
Humidity 52%
Rainfall 0.00 in
Snow Depth Not available.
UV 1 out of 12
Pollen .50 out of 12
Air Quality Not available.
Flu Activity Not available.
METAR KRDM 310056Z 31010KT 10SM BKN080 16/07 A3007 RMK AO2 SLP170 T01560067

10-Day Weather Forecast

×

Almanac

Astronomy

Aug. 30, 2015 Rise Set
Actual Time
Civil Twilight
Nautical Twilight
Astronomical Twilight
Moon
Length of Visible Light
Length of Day
Tomorrow will be .
, % of the Moon is Illuminated

Today's Extremes

State Highs State Lows

Community

WunderPhotos

Upload Photos

1,851,145 photos uploaded!

WunderBlogs® & News

Nearby

Air Quality

  Air Quality AQ Index Pollutant
Not available.

Snow Depth

Station Depth Elevation

Earthquake Activity

City Distance Mag. Time & Date
Minimum magnitude displayed is 2.5.

Coastal Water Temperatures

Place Temperature

Stations

Nearby Weather Stations

Station Location Temp. Windchill Dew Point Humidity Wind Precip. Elev Updated Type